Weather History for Stanley, ID

Change the Weather History Date:

Sunday, March 31, 2013

  Actual Average Record
Temperature  
Mean Temperature 37 °F 30 °F  
Max Temperature 60 °F 44 °F 61 °F (1994)
Min Temperature 14 °F 16 °F -18 °F (1924)
Degree Days  
Heating Degree Days 28 35  
Month to date heating degree days 1199 1183  
Since 1 July heating degree days 8284 8718  
Cooling Degree Days 0 0  
Month to date cooling degree days 0 0  
Year to date cooling degree days 0 0  
Moisture  
Dew Point 15 °F    
Average Humidity 54    
Maximum Humidity 96    
Minimum Humidity 11    
Precipitation  
Precipitation 0.00 in 0.07 in 0.60 in (1989)
Month to date precipitation 1.59 1.81  
Year to date precipitation 2.83 5.12  
Sea Level Pressure  
Sea Level Pressure 30.04 in    
Wind  
Wind Speed 2 mph (North)    
Max Wind Speed 7 mph    
Max Gust Speed 9 mph    
T = Trace of Precipitation, MM = Missing Value Source: NWS Daily Summary

Daily Weather History Graph

Daily Weather History Graph

Search for Another Location

Airport:

Trip Planner

Search our weather history database for the weather conditions in past years. The results will help you decide how hot, cold, wet, or windy it might be!

Date:

Astronomy

Mar. 31, 2013 Rise Set
Actual Time 7:22 AM MDT 8:06 PM MDT
Civil Twilight 6:52 AM MDT 8:35 PM MDT
Nautical Twilight 6:18 AM MDT 9:10 PM MDT
Astronomical Twilight 5:42 AM MDT 9:46 PM MDT
Moon 12:25 AM MDT (3/31) 10:04 AM MDT (3/31)
Length of Visible Light 13h 42m
Length of Day
12h 43m
Waning Gibbous, 77% of the Moon is Illuminated
Mar 31
Waning Gibbous
Apr 2
Last Quarter
Apr 10
New
Apr 18
First Quarter
Apr 25
Full

Hourly Weather History & Observations

Time (MDT) Temp. Windchill Dew Point Humidity Pressure Visibility Wind Dir Wind Speed Gust Speed Precip Events Conditions
12:51 AM 26.1 °F 21.9 °F 18.0 °F 71% 30.14 in - South 3.5 mph - N/A   Unknown
1:51 AM 23.0 °F 18.4 °F 17.1 °F 78% 30.12 in - SSE 3.5 mph - N/A   Unknown
2:51 AM 21.0 °F - 17.1 °F 85% 30.13 in - Calm Calm - N/A   Unknown
3:51 AM 18.0 °F - 15.1 °F 88% 30.11 in - Calm Calm - N/A   Unknown
4:51 AM 18.0 °F - 14.0 °F 84% 30.09 in - Calm Calm - N/A   Unknown
5:51 AM 18.0 °F - 14.0 °F 84% 30.10 in - Calm Calm - N/A   Unknown
6:51 AM 16.0 °F - 12.9 °F 88% 30.11 in - Calm Calm - N/A   Unknown
7:51 AM 14.0 °F - 12.0 °F 92% 30.17 in - Calm Calm - N/A   Unknown
8:51 AM 23.0 °F 18.4 °F 17.1 °F 78% 30.16 in - NE 3.5 mph - N/A   Unknown
9:51 AM 30.0 °F - 21.0 °F 69% 30.13 in - Calm Calm - N/A   Unknown
10:51 AM 34.0 °F - 21.0 °F 59% 30.10 in - Calm Calm - N/A   Unknown
11:51 AM 39.9 °F - 19.0 °F 43% 30.07 in - Calm Calm - N/A   Unknown
12:51 PM 45.0 °F 43.5 °F 19.9 °F 37% 30.04 in - NNW 3.5 mph - N/A   Unknown
1:51 PM 51.1 °F - 17.1 °F 26% 30.01 in - North 3.5 mph - N/A   Unknown
2:51 PM 55.9 °F - 12.9 °F 18% 29.96 in - North 3.5 mph - N/A   Unknown
3:51 PM 57.9 °F - 5.0 °F 12% 29.95 in - NNW 5.8 mph - N/A   Unknown
4:51 PM 59.0 °F - 6.1 °F 12% 29.91 in - NNW 4.6 mph - N/A   Unknown
5:51 PM 57.9 °F - 3.0 °F 11% 29.90 in - NNW 4.6 mph - N/A   Unknown
6:51 PM 57.9 °F - 10.0 °F 15% 29.89 in - Calm Calm - N/A   Unknown
7:51 PM 37.9 °F 34.4 °F 18.0 °F 45% 29.99 in - South 4.6 mph - N/A   Unknown
8:51 PM 34.0 °F 31.0 °F 18.0 °F 52% 29.96 in - SSE 3.5 mph - N/A   Unknown
9:51 PM 34.0 °F 29.8 °F 17.1 °F 50% 29.96 in - South 4.6 mph - N/A   Unknown
10:51 PM 30.0 °F - 19.0 °F 64% 29.96 in - Calm Calm - N/A   Unknown
11:51 PM 28.0 °F - 18.0 °F 66% 29.95 in - Calm Calm - N/A   Unknown